EW0609 Weather Reports


time (UTC)temp
C
wind
direction
speed
KPH
gust
KPH
rain 1hr
cm
rain 24hr
cm
rain mn
cm
humidity
%
barometer
mb
20260508065336 14 217 6.4 11.3 0.00 0.03 0.00 50 1013.3
20260508064835 14 189 4.8 14.5 0.00 0.03 0.00 50 1013.3
20260508064726 14 209 6.4 14.5 0.00 0.03 0.00 50 1013.3
20260508063834 15 196 6.4 14.5 0.00 0.03 0.00 49 1013.4
20260508063721 15 235 3.2 14.5 0.00 0.03 0.00 48 1013.4
20260508062837 15 175 6.4 9.7 0.00 0.03 0.00 48 1013.5
20260508062337 15 182 4.8 11.3 0.00 0.03 0.00 48 1013.4
20260508061836 15 161 6.4 14.5 0.00 0.03 0.00 47 1013.5
20260508061336 15 219 4.8 14.5 0.00 0.03 0.00 47 1013.5
20260508060834 15 169 4.8 11.3 0.00 0.03 0.00 47 1013.5
20260508060335 15 202 4.8 17.7 0.00 0.03 0.00 46 1013.5
20260508055837 16 219 6.4 17.7 0.00 0.03 0.00 46 1013.5
20260508055335 16 159 8.0 17.7 0.00 0.03 0.00 46 1013.4
20260508054836 16 154 8.0 17.7 0.00 0.03 0.00 46 1013.6
20260508054335 16 216 8.0 17.7 0.00 0.03 0.00 46 1013.5
20260508053838 16 158 6.4 17.7 0.00 0.03 0.00 45 1013.7
20260508053336 16 151 8.0 16.1 0.00 0.03 0.00 46 1013.7
20260508052835 16 159 6.4 16.1 0.00 0.03 0.00 45 1013.7
20260508052336 16 190 6.4 16.1 0.00 0.03 0.00 44 1013.8
20260508051835 16 200 8.0 17.7 0.00 0.03 0.00 44 1014.0
20260508051335 16 166 9.7 17.7 0.00 0.03 0.00 44 1014.0
20260508050834 16 186 6.4 14.5 0.00 0.03 0.00 44 1014.0
20260508050334 16 199 6.4 11.3 0.00 0.03 0.00 44 1014.0
20260508045836 16 138 6.4 11.3 0.00 0.03 0.03 43 1014.2
20260508045335 16 176 4.8 9.7 0.00 0.03 0.03 43 1014.0
20260508044834 16 186 3.2 9.7 0.00 0.03 0.03 43 1014.2
20260508044334 16 169 3.2 14.5 0.00 0.03 0.03 42 1014.2
20260508043836 16 206 4.8 14.5 0.00 0.03 0.03 42 1014.3
20260508043334 16 166 6.4 11.3 0.00 0.03 0.03 42 1014.3
20260508042835 16 148 4.8 11.3 0.00 0.03 0.03 41 1014.3
20260508042335 16 185 6.4 11.3 0.00 0.03 0.03 41 1014.3
20260508041834 16 141 6.4 11.3 0.00 0.03 0.03 40 1014.2
20260508041334 16 164 4.8 8.0 0.00 0.03 0.03 40 1014.2
20260508040837 16 162 3.2 6.4 0.00 0.03 0.03 39 1014.2
20260508040718 16 147 3.2 6.4 0.00 0.03 0.03 40 1014.2
20260508040109 17 145 3.2 6.4 0.00 0.03 0.03 38 1014.0
20260508040001 16 148 0.0 6.4 0.00 0.03 0.03 38 1014.2
20260508035221 17 155 3.2 6.4 0.00 0.03 0.03 37 1014.2
20260508034334 17 172 3.2 6.4 0.00 0.03 0.03 37 1014.2
20260508033835 17 133 1.6 6.4 0.00 0.03 0.03 36 1014.2
20260508033334 17 180 3.2 8.0 0.00 0.03 0.03 36 1014.2
20260508032834 17 176 1.6 8.0 0.00 0.03 0.03 35 1014.2
20260508032718 17 178 3.2 6.4 0.00 0.03 0.03 35 1014.0
20260508031837 17 166 1.6 6.4 0.00 0.03 0.03 35 1013.9
20260508031335 18 147 1.6 6.4 0.00 0.03 0.03 34 1013.7
20260508030834 17 162 3.2 6.4 0.00 0.03 0.03 34 1013.8
20260508030336 18 152 3.2 6.4 0.00 0.03 0.03 34 1013.8
20260508025834 17 162 3.2 6.4 0.00 0.03 0.03 35 1013.6
20260508025335 17 165 0.0 4.8 0.00 0.03 0.03 36 1013.5
20260508025223 17 147 1.6 4.8 0.00 0.03 0.03 37 1013.5
20260508024334 17 155 0.0 0.0 0.00 0.03 0.03 36 1013.3
20260508023836 17 149 0.0 0.0 0.00 0.03 0.03 36 1013.3
20260508023716 17 148 0.0 0.0 0.00 0.03 0.03 36 1013.3
20260508022834 17 158 0.0 0.0 0.00 0.03 0.03 35 1013.3
20260508022334 18 182 0.0 0.0 0.00 0.03 0.03 35 1013.3
20260508021834 18 182 0.0 3.2 0.00 0.03 0.03 35 1013.2
20260508021334 19 179 0.0 3.2 0.00 0.03 0.03 33 1013.2
20260508020837 19 196 0.0 6.4 0.00 0.03 0.03 32 1013.0
20260508020334 20 186 1.6 6.4 0.00 0.03 0.03 31 1012.9
20260508015835 20 178 1.6 4.8 0.00 0.03 0.03 30 1013.0
20260508015334 21 166 1.6 8.0 0.00 0.03 0.03 30 1012.9
20260508014834 21 162 3.2 8.0 0.00 0.03 0.03 30 1012.8
20260508014334 21 216 3.2 8.0 0.00 0.03 0.03 30 1012.9
20260508013834 21 175 3.2 9.7 0.00 0.03 0.03 29 1012.7
20260508013335 21 220 6.4 14.5 0.00 0.03 0.03 29 1012.9
20260508012836 21 209 4.8 16.1 0.00 0.03 0.03 29 1012.9
20260508012721 21 212 6.4 20.9 0.00 0.03 0.03 29 1012.9
20260508011836 21 195 9.7 20.9 0.00 0.03 0.03 29 1012.8
20260508011334 22 209 6.4 17.7 0.00 0.03 0.03 28 1012.7
20260508011224 21 197 3.2 17.7 0.00 0.03 0.03 30 1012.8
20260508010334 21 219 3.2 17.7 0.00 0.03 0.03 29 1012.7
20260508005834 22 214 6.4 9.7 0.00 0.03 0.03 31 1012.8
20260508005716 22 210 4.8 25.7 0.00 0.03 0.03 27 1012.6
20260508005021 22 212 6.4 20.9 0.00 0.03 0.03 27 1012.7
20260508005014 22 213 9.7 20.9 0.00 0.03 0.03 26 1012.7
20260508004927 22 210 6.4 25.7 0.00 0.03 0.03 30 1012.6
20260508003334 22 241 9.7 20.9 0.00 0.03 0.03 27 1012.7
20260508002834 22 180 9.7 20.9 0.00 0.03 0.03 27 1012.6
20260508002334 22 237 4.8 24.1 0.00 0.03 0.03 29 1012.6
20260508001837 23 204 11.3 24.1 0.00 0.03 0.03 26 1012.6
20260508001333 22 209 3.2 17.7 0.00 0.03 0.03 27 1012.6
20260508000836 22 197 4.8 17.7 0.00 0.03 0.03 28 1012.6
20260508000336 23 133 8.0 17.7 0.00 0.03 0.03 28 1012.6
20260507235834 23 207 11.3 17.7 0.00 0.03 0.03 27 1012.6
20260507235334 23 190 6.4 14.5 0.00 0.03 0.03 30 1012.5
20260507235220 23 220 6.4 17.7 0.00 0.03 0.03 26 1012.5
20260507234720 23 233 8.0 17.7 0.00 0.03 0.03 27 1012.5
20260507234115 23 247 9.7 22.5 0.00 0.03 0.03 28 1012.7
20260507234002 23 261 9.7 17.7 0.00 0.03 0.03 30 1012.7
20260507232834 23 247 12.9 22.5 0.00 0.03 0.03 27 1012.9
20260507232336 23 234 8.0 19.3 0.00 0.03 0.03 27 1012.9
20260507231834 23 196 6.4 14.5 0.00 0.03 0.03 27 1012.9
20260507231336 23 227 6.4 11.3 0.00 0.03 0.03 25 1012.9
20260507231226 23 251 4.8 17.7 0.00 0.03 0.03 27 1013.0
20260507230336 23 179 8.0 17.7 0.00 0.03 0.03 25 1013.0
20260507225835 23 234 8.0 19.3 0.00 0.03 0.03 26 1013.2
20260507225334 23 219 9.7 19.3 0.00 0.03 0.03 25 1013.3
20260507224834 24 154 11.3 20.9 0.00 0.03 0.03 25 1013.4
20260507224334 24 275 8.0 20.9 0.00 0.03 0.03 25 1013.4
20260507223835 24 202 8.0 22.5 0.00 0.03 0.03 24 1013.4
20260507223334 24 235 8.0 22.5 0.00 0.03 0.03 25 1013.5
20260507222834 24 271 12.9 24.1 0.00 0.03 0.03 25 1013.4
20260507222335 24 140 12.9 24.1 0.00 0.03 0.03 26 1013.5
20260507222220 24 321 4.8 14.5 0.00 0.03 0.03 26 1013.5
20260507221336 23 295 8.0 17.7 0.00 0.03 0.03 26 1013.6
20260507221218 24 186 4.8 17.7 0.00 0.03 0.03 26 1013.7
20260507220333 23 197 3.2 16.1 0.00 0.03 0.03 25 1013.7
20260507215835 23 244 4.8 16.1 0.00 0.03 0.03 26 1013.7
20260507215728 23 251 8.0 17.7 0.00 0.03 0.03 26 1013.9
20260507215213 23 212 6.4 17.7 0.00 0.03 0.03 27 1013.8
20260507214330 23 212 3.2 16.1 0.00 0.03 0.03 28 1014.0
20260507213830 23 175 8.0 16.1 0.00 0.03 0.03 27 1014.0
20260507213330 23 240 6.4 27.4 0.00 0.03 0.03 27 1014.3
20260507212831 23 224 11.3 27.4 0.00 0.03 0.03 30 1014.4
20260507212329 23 250 9.7 19.3 0.00 0.03 0.03 28 1014.3
20260507211830 23 176 8.0 16.1 0.00 0.03 0.03 27 1014.4
20260507211330 23 233 11.3 19.3 0.00 0.03 0.03 28 1014.6
20260507210830 23 212 6.4 19.3 0.00 0.03 0.03 28 1014.7
20260507210329 23 137 6.4 20.9 0.00 0.03 0.03 28 1014.7
20260507205832 23 241 11.3 20.9 0.00 0.03 0.03 31 1014.8
20260507205327 23 244 11.3 19.3 0.00 0.03 0.03 29 1015.1
20260507204830 23 252 12.9 22.5 0.00 0.03 0.03 32 1015.1
20260507204328 23 296 6.4 22.5 0.00 0.03 0.03 29 1015.2
20260507203828 23 233 6.4 25.7 0.00 0.03 0.03 30 1015.3
20260507203712 23 258 11.3 25.7 0.00 0.03 0.03 29 1015.5
20260507202826 23 200 8.0 24.1 0.00 0.03 0.03 32 1015.4
20260507202328 23 192 9.7 19.3 0.00 0.03 0.03 31 1015.4
20260507201827 22 231 6.4 17.7 0.00 0.03 0.03 38 1015.6
20260507201720 22 226 4.8 20.9 0.00 0.03 0.03 36 1015.7
20260507200825 22 245 9.7 24.1 0.00 0.03 0.03 32 1015.9
20260507200325 22 180 9.7 24.1 0.00 0.03 0.03 32 1015.9
20260507195825 22 321 6.4 24.1 0.00 0.03 0.03 35 1016.1
20260507195327 22 237 6.4 24.1 0.00 0.03 0.03 34 1016.3
20260507194825 21 278 9.7 17.7 0.00 0.03 0.03 34 1016.3
20260507194325 21 231 4.8 24.1 0.00 0.03 0.03 36 1016.4
20260507193823 22 193 6.4 24.1 0.00 0.03 0.03 35 1016.4
20260507193322 22 217 4.8 19.3 0.00 0.03 0.03 35 1016.5
20260507192917 22 200 9.7 19.3 0.00 0.03 0.03 36 1016.6
20260507192453 22 276 11.3 19.3 0.00 0.03 0.03 38 1016.7
20260507191707 21 262 11.3 24.1 0.00 0.03 0.03 36 1016.9
20260507190817 21 326 8.0 17.7 0.00 0.03 0.03 37 1017.1
20260507190319 21 258 9.7 24.1 0.00 0.03 0.03 38 1017.1
20260507185816 21 227 6.4 24.1 0.00 0.03 0.03 41 1017.2
20260507185317 20 223 11.3 24.1 0.00 0.03 0.03 42 1017.4
20260507184816 20 131 9.7 24.1 0.00 0.03 0.03 42 1017.4
20260507184317 20 217 6.4 17.7 0.00 0.03 0.03 42 1017.4
20260507183816 21 200 6.4 17.7 0.00 0.03 0.03 45 1017.6
20260507183316 20 235 8.0 22.5 0.00 0.03 0.03 45 1017.7
20260507182815 20 207 12.9 22.5 0.00 0.03 0.03 42 1018.0
20260507182315 19 244 8.0 19.3 0.00 0.03 0.03 47 1018.0
20260507181814 19 199 9.7 19.3 0.00 0.03 0.03 45 1018.2
20260507181314 18 238 9.7 19.3 0.00 0.03 0.03 46 1018.2
20260507180813 19 255 9.7 20.9 0.00 0.03 0.03 47 1018.3
20260507180312 19 195 8.0 20.9 0.00 0.03 0.03 48 1018.4
20260507175812 18 254 6.4 20.9 0.00 0.03 0.03 49 1018.5
20260507175315 19 230 9.7 20.9 0.00 0.03 0.03 51 1018.5
20260507174816 18 203 9.7 22.5 0.00 0.03 0.03 51 1018.6
20260507174311 18 235 12.9 22.5 0.00 0.03 0.03 51 1018.7
20260507173810 18 271 11.3 22.5 0.00 0.03 0.03 51 1018.8
20260507173310 17 196 11.3 22.5 0.00 0.03 0.03 52 1019.0
20260507172811 17 238 9.7 22.5 0.00 0.03 0.03 54 1019.1
20260507172310 17 180 14.5 22.5 0.00 0.03 0.03 51 1019.1
20260507171807 17 235 9.7 22.5 0.00 0.03 0.03 51 1019.2
20260507171308 17 252 11.3 22.5 0.00 0.03 0.03 52 1019.4
20260507170809 16 213 9.7 22.5 0.00 0.03 0.03 56 1019.4
20260507170658 16 212 11.3 22.5 0.00 0.03 0.03 54 1019.5
20260507165807 16 240 6.4 22.5 0.00 0.03 0.03 56 1019.5
20260507165649 16 259 6.4 22.5 0.00 0.03 0.03 56 1019.6
20260507164806 16 258 9.7 22.5 0.00 0.03 0.03 58 1019.8
20260507164306 16 207 9.7 22.5 0.00 0.03 0.03 58 1019.7
20260507163806 15 306 11.3 22.5 0.00 0.03 0.03 60 1019.8
20260507163656 15 269 8.0 22.5 0.00 0.03 0.03 60 1020.0
20260507163150 15 276 11.3 22.5 0.00 0.03 0.03 60 1020.0
20260507162307 15 176 11.3 22.5 0.00 0.03 0.03 60 1020.1
20260507162149 15 272 9.7 22.5 0.00 0.03 0.03 61 1020.1
20260507161302 14 268 6.4 20.9 0.00 0.03 0.03 62 1020.1
20260507160801 13 226 9.7 20.9 0.00 0.03 0.03 63 1020.1
20260507160649 13 238 11.3 19.3 0.00 0.03 0.03 63 1020.1
20260507155800 13 235 9.7 19.3 0.00 0.03 0.03 66 1020.2
20260507155259 13 213 9.7 17.7 0.00 0.03 0.03 66 1020.2
20260507154800 13 216 6.4 14.5 0.00 0.03 0.03 66 1020.2
20260507154541 12 165 6.4 17.7 0.00 0.03 0.03 70 1020.1
20260507154428 12 295 6.4 14.5 0.00 0.03 0.03 68 1020.2
20260507153648 12 164 6.4 17.7 0.00 0.03 0.03 73 1020.2
20260507152756 11 217 8.0 14.5 0.00 0.03 0.03 74 1020.2
20260507152300 11 227 8.0 16.1 0.00 0.03 0.03 77 1020.3
20260507151755 11 224 8.0 16.1 0.00 0.03 0.03 77 1020.4
20260507151651 10 288 6.4 16.1 0.00 0.03 0.03 81 1020.5
20260507150756 10 175 4.8 16.1 0.00 0.03 0.03 81 1020.6
20260507150253 9 266 8.0 16.1 0.00 0.03 0.03 81 1020.7
20260507145753 9 258 9.7 17.7 0.00 0.03 0.03 83 1020.6
20260507145255 8 268 6.4 17.7 0.00 0.03 0.03 85 1020.6
20260507144751 8 261 4.8 16.1 0.00 0.03 0.03 86 1020.7
20260507144638 8 286 9.7 16.1 0.00 0.03 0.03 87 1020.9
20260507143749 7 186 3.2 16.1 0.00 0.03 0.03 88 1020.9
20260507143249 7 237 6.4 16.1 0.00 0.03 0.03 88 1020.9
20260507142847 7 261 8.0 17.7 0.00 0.03 0.03 90 1021.1
20260507142422 6 233 8.0 17.7 0.00 0.03 0.03 89 1021.1
20260507141247 6 243 4.8 11.3 0.00 0.03 0.03 91 1021.1
20260507140749 6 226 6.4 9.7 0.00 0.03 0.03 91 1021.1
20260507140247 6 247 4.8 9.7 0.00 0.03 0.03 92 1021.0
20260507140138 6 245 3.2 9.7 0.00 0.03 0.03 92 1021.0
20260507135247 6 247 6.4 16.1 0.00 0.03 0.03 92 1021.1
20260507134745 6 234 6.4 16.1 0.00 0.03 0.03 92 1021.2
20260507134247 5 285 6.4 14.5 0.00 0.03 0.03 92 1021.2
20260507133746 5 274 8.0 14.5 0.00 0.03 0.03 92 1021.3
20260507133246 5 257 6.4 11.3 0.00 0.03 0.03 92 1021.2
20260507132746 5 241 6.4 8.0 0.00 0.03 0.03 92 1021.3
20260507132632 5 272 4.8 14.5 0.00 0.03 0.03 92 1021.3
20260507131742 5 350 3.2 14.5 0.00 0.03 0.03 92 1021.2
20260507131242 5 221 4.8 14.5 0.00 0.03 0.03 92 1021.2
20260507130741 5 261 4.8 14.5 0.00 0.03 0.03 92 1021.1
20260507130625 5 264 4.8 11.3 0.00 0.03 0.03 93 1021.1
20260507130133 5 230 3.2 9.7 0.00 0.03 0.03 92 1021.1
20260507125240 5 266 3.2 8.0 0.00 0.03 0.03 93 1021.1
20260507124740 5 292 4.8 8.0 0.00 0.03 0.03 93 1021.0
20260507124238 5 285 3.2 9.7 0.00 0.03 0.03 93 1021.0
20260507123738 5 262 4.8 9.7 0.00 0.03 0.03 92 1021.0
20260507123237 5 288 3.2 9.7 0.00 0.03 0.03 93 1021.0
20260507122737 5 252 3.2 14.5 0.00 0.03 0.03 93 1021.0
20260507122621 5 0 4.8 16.1 0.00 0.03 0.03 92 1020.9
20260507121737 5 255 8.0 16.1 0.00 0.03 0.03 92 1020.9
20260507121240 5 307 4.8 14.5 0.00 0.03 0.03 92 1020.9
20260507120738 5 264 6.4 14.5 0.00 0.03 0.03 92 1020.7
20260507120238 5 299 3.2 11.3 0.00 0.03 0.03 92 1020.7
20260507115736 5 305 3.2 11.3 0.00 0.03 0.03 92 1020.7
20260507115237 5 306 4.8 9.7 0.00 0.03 0.03 92 1020.7
20260507114735 5 275 4.8 9.7 0.00 0.03 0.03 92 1020.6
20260507114235 5 295 3.2 9.7 0.00 0.03 0.03 92 1020.6
20260507114125 5 281 3.2 11.3 0.00 0.03 0.03 92 1020.6
20260507113235 5 240 4.8 11.3 0.00 0.03 0.03 92 1020.6
20260507112734 5 317 6.4 9.7 0.00 0.03 0.03 92 1020.5
20260507112236 5 330 4.8 11.3 0.00 0.03 0.03 92 1020.5
20260507112126 5 357 4.8 11.3 0.00 0.03 0.03 92 1020.6
20260507111621 5 299 4.8 11.3 0.00 0.03 0.03 92 1020.7
20260507110735 5 305 6.4 11.3 0.00 0.03 0.03 92 1020.6
20260507110235 5 282 1.6 11.3 0.00 0.03 0.03 92 1020.6
20260507105733 5 312 3.2 9.7 0.00 0.03 0.03 92 1020.5
20260507105234 5 262 1.6 9.7 0.00 0.03 0.03 92 1020.5
20260507104733 5 245 4.8 9.7 0.00 0.03 0.03 91 1020.6
20260507104234 5 247 4.8 9.7 0.00 0.03 0.03 91 1020.7
20260507103734 5 255 3.2 9.7 0.00 0.03 0.03 91 1020.7
20260507103234 5 289 3.2 11.3 0.00 0.03 0.03 91 1020.7
20260507103120 5 268 4.8 11.3 0.00 0.03 0.03 91 1020.7
20260507102233 5 323 3.2 11.3 0.00 0.03 0.03 91 1020.7
20260507102119 5 323 1.6 11.3 0.00 0.03 0.03 91 1020.9
20260507101236 5 0 4.8 11.3 0.00 0.03 0.03 91 1020.7
20260507100734 5 347 4.8 8.0 0.00 0.03 0.03 91 1020.7
20260507100233 5 324 1.6 8.0 0.00 0.03 0.03 91 1020.7
20260507095733 5 300 1.6 11.3 0.00 0.03 0.03 91 1020.9
20260507095233 5 259 6.4 11.3 0.00 0.03 0.03 91 1020.9
20260507094733 5 331 4.8 9.7 0.00 0.03 0.03 91 1020.9
20260507094235 5 321 4.8 9.7 0.00 0.03 0.03 91 1020.7
20260507093733 6 329 4.8 6.4 0.00 0.03 0.03 91 1020.9
20260507093233 6 309 3.2 6.4 0.00 0.03 0.03 91 1020.9
20260507092735 6 298 3.2 6.4 0.00 0.03 0.03 90 1020.9
20260507092616 6 289 1.6 6.4 0.00 0.03 0.03 91 1020.9
20260507091733 6 327 1.6 6.4 0.00 0.03 0.03 90 1020.9
20260507091233 6 353 4.8 6.4 0.00 0.03 0.03 91 1020.9
20260507090733 6 340 1.6 9.7 0.00 0.03 0.03 91 1020.9
20260507090232 6 341 3.2 9.7 0.00 0.03 0.03 90 1020.6
20260507085733 6 330 3.2 6.4 0.00 0.03 0.03 90 1020.7
20260507085234 6 340 1.6 6.4 0.00 0.03 0.03 90 1020.7
20260507084734 6 334 1.6 9.7 0.00 0.03 0.03 90 1020.6
20260507084235 5 344 6.4 9.7 0.00 0.03 0.03 90 1020.4
20260507083733 5 140 0.0 6.4 0.00 0.03 0.03 90 1020.3
20260507083614 5 118 0.0 6.4 0.00 0.03 0.03 90 1020.4
20260507082733 6 125 1.6 6.4 0.00 0.03 0.03 89 1020.3
20260507082235 6 127 3.2 6.4 0.03 0.03 0.03 89 1020.3
20260507081733 6 135 0.0 4.8 0.03 0.03 0.03 89 1020.3
20260507081235 6 128 3.2 4.8 0.03 0.03 0.03 89 1020.4
20260507080733 6 87 0.0 6.4 0.03 0.03 0.03 89 1020.4
20260507080233 6 99 3.2 6.4 0.03 0.03 0.03 89 1020.5
20260507075734 6 78 0.0 3.2 0.03 0.00 0.03 89 1020.6
20260507075233 6 89 0.0 0.0 0.03 0.00 0.03 88 1020.5
20260507075130 6 52 0.0 3.2 0.03 0.00 0.03 88 1020.7
20260507074233 6 63 0.0 8.0 0.03 0.00 0.03 88 1020.7
20260507074121 6 55 1.6 8.0 0.03 0.00 0.03 88 1020.4
20260507073614 6 86 4.8 8.0 0.03 0.00 0.03 87 1020.5
20260507072734 6 103 4.8 6.4 0.03 0.00 0.03 87 1020.9
20260507072233 6 83 0.0 4.8 0.00 0.00 0.00 87 1021.2
20260507072123 6 347 1.6 6.4 0.00 0.00 0.00 86 1021.5
20260507071233 6 21 0.0 6.4 0.00 0.00 0.00 85 1021.4
20260507070734 6 0 1.6 11.3 0.00 0.00 0.00 84 1021.6
20260507070234 6 0 4.8 16.1 0.00 0.00 0.00 83 1021.6
20260507065735 6 357 4.8 16.1 0.00 0.00 0.00 81 1021.9